Temperature
23 22 22 21 21 21 20 20 20 20 19 19 19 19 18 18 18 18 18 18 18 18 18 18 18 18 18 18 18 18 18 17 17 17 17 17 17 17 17 17 17 17 17
21 22 21 21 21 21 20 20 20 19 19 19 19 19 18 18 18 18 18 18 18 18 18 18 18 18 18 18 18 18 18 17 17 17 17 17 17 17 17 17 17 17 17
21 21 21 21 21 20 20 20 20 19 19 18 18 18 18 18 18 18 18 18 18 18 18 18 18 18 18 18 18 18 17 17 17 17 17 17 18 18 17 17 17 17 17
22 21 21 21 20 20 20 20 19 19 19 18 18 18 18 18 18 18 18 18 18 18 18 18 18 18 18 18 17 17 17 17 17 17 17 18 18 18 17 17 17 17 17
22 22 21 21 20 20 20 19 19 19 19 18 18 18 18 18 18 18 18 18 18 18 17 17 17 18 18 18 17 17 17 17 17 17 17 17 17 17 17 17 17 17 17
22 22 21 21 20 20 19 19 19 19 18 18 18 18 18 18 18 17 17 17 17 17 17 17 17 18 18 18 17 17 17 17 17 17 17 17 17 17 17 18 18 17 17
21 21 21 21 20 19 19 19 18 18 18 18 18 18 17 18 18 17 17 17 17 17 17 17 17 18 17 17 17 17 17 17 17 17 17 17 17 17 17 18 18 17 17
21 21 21 21 20 19 19 19 18 18 18 18 17 17 17 17 17 17 17 17 18 18 18 17 17 17 17 17 17 17 17 17 17 17 17 17 17 17 17 17 17 17 17
21 21 21 21 20 20 19 19 19 18 18 17 17 17 17 17 17 17 17 17 17 17 17 17 17 17 17 17 17 17 17 17 17 17 17 17 17 17 17 17 17 17 17
20 21 21 21 20 20 19 19 19 18 18 18 17 17 17 17 17 17 17 17 17 17 17 17 17 17 17 17 17 17 17 17 17 17 17 17 17 17 17 17 17 17 17
21 21 21 21 20 20 19 19 18 18 18 17 17 17 17 17 17 17 17 17 17 17 17 17 17 17 17 17 17 17 17 17 17 17 17 17 17 17 17 17 17 17 17
21 21 21 21 20 20 19 19 18 18 18 18 18 17 17 17 17 17 17 17 17 17 17 17 17 17 17 17 17 17 17 17 17 17 17 17 17 16 16 16 16 16 16
21 21 20 20 20 20 19 19 18 18 18 18 17 17 17 17 17 17 17 17 17 17 17 17 17 17 17 17 17 17 16 16 16 16 16 16 16 16 16 16 16 16 16
21 21 20 20 20 20 19 19 18 18 18 18 17 17 17 17 17 17 17 17 17 17 17 17 17 17 17 17 17 16 16 16 16 16 16 16 16 16 16 16 16 16 16
21 20 20 20 20 19 19 19 18 18 18 18 17 17 17 17 17 17 17 17 17 17 17 17 17 17 16 16 16 16 16 16 16 16 16 16 16 16 16 15 15 15 15
20 20 20 20 20 19 19 19 18 18 18 18 17 17 17 17 17 17 17 17 17 17 17 17 17 16 16 16 16 16 16 16 16 16 15 15 15 15 15 15 15 15 15
20 20 20 20 20 20 19 19 19 18 18 18 17 17 17 17 17 17 17 17 17 16 16 16 16 16 16 16 16 16 16 15 15 15 15 15 15 15 15 15 15 14 14
19 19 19 19 19 19 19 19 18 18 18 18 17 17 17 17 17 17 17 16 16 16 16 16 16 16 16 16 15 15 15 15 15 15 15 15 15 14 14 14 14 14 14
19 19 19 19 19 19 18 18 18 18 18 17 17 17 17 17 17 16 16 16 16 16 16 16 16 15 15 15 15 15 15 15 15 14 14 14 14 14 14 14 14 14 14
18 19 19 19 19 18 18 18 18 17 17 17 17 17 17 17 16 16 16 16 16 16 15 15 15 15 15 15 15 15 15 14 14 14 14 14 14 13 13 13 13 13 13
17 18 18 18 18 18 18 17 17 17 17 17 16 16 16 16 16 16 16 15 15 15 15 15 15 14 14 14 14 14 14 14 14 14 13 13 13 13 13 13 12 12 12
16 17 17 17 17 17 17 17 17 17 17 16 16 16 16 15 15 15 15 15 15 15 14 14 14 14 14 14 14 14 13 13 13 13 13 13 12 12 12 12 12 12 11
15 15 16 16 16 16 16 16 16 16 16 16 16 15 15 15 15 15 15 14 14 14 14 14 14 13 13 13 13 13 13 13 12 12 12 12 12 12 11 11 11 11 11
14 14 15 15 15 15 15 15 15 15 15 15 15 15 15 14 14 14 14 14 14 14 13 13 13 13 12 12 12 12 12 12 12 11 11 11 11 11 11 11 11 10 10
13 13 14 13 14 14 14 14 14 15 15 14 14 14 14 14 14 13 13 13 13 13 13 12 12 12 12 11 11 11 11 11 11 11 11 11 10 10 10 10 10 10 10
12 13 13 13 13 13 13 13 13 14 14 14 14 13 13 13 13 13 12 12 12 12 12 12 11 11 11 11 11 10 10 10 10 10 10 10 10 9 9 9 9 9 9
Wind_Speed
8 8 9 9 10 10 11 12 13 12 10 8 8 7 7 7 6 6 10 12 11 11 8 5 5 5 5 5 5 4 3 2 2 3 2 2 1 2 3 4 5 7 11
8 10 10 11 11 12 12 13 13 12 10 8 6 5 5 5 6 6 7 10 11 11 9 6 6 6 5 5 5 4 3 1 2 3 3 2 3 2 1 2 5 5 7
14 13 11 10 11 12 13 13 12 12 10 9 6 5 4 3 4 5 6 7 10 10 8 8 6 6 6 6 5 5 5 3 1 2 4 4 3 2 2 2 3 4 4
11 11 11 10 11 11 10 10 11 11 11 11 10 10 8 7 6 6 6 6 8 9 9 8 7 6 6 6 6 5 4 4 2 1 1 3 4 3 1 3 2 3 5
12 13 12 11 9 10 10 10 10 10 10 11 12 11 8 6 5 6 7 6 5 7 8 8 7 6 6 6 6 5 5 4 4 3 2 1 1 2 3 2 3 2 3
9 11 10 9 7 8 9 9 10 9 10 11 11 11 11 10 9 8 8 6 5 5 7 8 7 6 6 6 6 6 6 4 4 3 3 3 3 3 3 3 3 3 3
8 10 10 10 10 10 10 10 10 9 10 11 11 11 11 11 11 10 9 8 6 5 8 8 7 7 6 6 5 6 5 5 5 4 3 3 3 3 4 3 2 2 3
8 11 12 12 11 11 10 10 10 9 10 11 10 9 10 8 8 9 9 9 8 8 8 8 8 8 7 7 6 5 5 5 5 5 4 2 2 3 3 4 4 1 1
8 10 11 11 11 11 10 10 10 8 9 10 10 9 9 9 9 8 8 7 7 7 9 9 9 8 8 8 7 5 5 5 5 5 4 3 2 2 2 3 4 5 3
7 9 10 10 10 9 8 8 8 9 8 9 9 10 9 9 8 8 9 9 8 8 9 9 9 9 8 8 7 5 5 6 5 4 5 4 2 2 2 2 3 4 5
6 7 8 9 9 8 8 7 7 7 7 8 8 8 9 8 8 8 9 8 8 8 9 10 9 9 9 8 8 7 7 7 6 5 6 5 4 3 2 2 2 2 3
7 7 9 9 8 8 8 7 7 7 7 8 8 8 8 8 8 8 7 7 8 8 9 9 9 9 9 8 9 9 8 8 8 7 6 6 4 4 3 3 3 2 3
7 8 9 9 9 8 8 7 7 7 6 6 7 8 8 8 8 8 7 7 8 8 8 9 9 8 8 8 8 8 7 8 8 7 7 7 5 5 4 4 3 3 2
8 9 9 9 9 9 8 7 6 6 7 6 7 7 8 8 8 7 6 7 7 8 8 7 8 7 7 7 7 7 6 6 6 6 7 6 7 7 6 5 4 3 2
7 9 10 10 9 9 8 7 7 6 7 7 6 6 6 6 6 6 6 6 6 7 6 6 5 5 5 5 6 7 6 5 5 4 5 6 7 8 7 5 5 4 3
6 8 9 9 10 10 10 8 8 7 7 7 7 6 6 6 6 6 6 6 5 5 6 5 5 4 4 5 7 7 5 5 5 5 4 4 5 6 7 7 7 6 5
4 5 8 9 8 9 9 9 8 8 8 7 7 6 6 6 5 6 6 6 5 5 5 5 5 4 3 4 5 7 5 4 4 4 4 3 3 4 4 5 6 7 8
3 3 4 6 6 7 7 8 7 8 8 7 6 6 7 6 5 5 6 5 5 5 5 5 5 4 2 3 4 5 4 3 2 3 3 3 2 2 3 3 3 3 4
2 2 2 4 6 7 7 8 7 7 7 7 6 6 7 7 6 6 5 5 5 4 4 4 5 4 2 2 3 4 3 2 1 1 1 2 1 1 2 2 2 4 5
3 3 4 6 7 6 7 8 7 7 7 6 6 5 5 6 6 6 5 4 5 4 5 5 4 4 3 3 4 5 3 2 1 1 1 0 1 1 0 1 2 4 5
5 5 6 6 5 5 8 9 7 6 5 6 6 6 5 6 6 6 5 5 6 5 5 6 5 4 5 5 5 5 3 2 1 1 1 1 2 3 2 1 2 4 4
7 7 8 7 6 6 9 10 7 5 6 7 8 7 6 5 5 6 6 6 7 7 6 6 6 5 5 6 5 6 4 3 2 0 1 1 3 3 4 2 2 3 2
8 8 10 11 9 8 9 10 7 7 8 9 8 7 7 7 7 7 7 6 6 6 6 6 5 4 4 4 7 6 5 4 2 1 2 3 4 3 3 3 4 2 1
8 9 11 12 10 9 10 9 8 8 10 10 8 7 8 8 8 6 6 6 5 6 6 5 5 4 3 3 4 4 4 4 4 3 4 5 5 4 3 3 3 2 1
9 10 11 11 11 10 11 10 9 10 11 10 9 9 9 9 9 9 7 7 5 4 6 5 4 4 3 2 2 3 2 2 2 3 3 4 4 5 4 3 3 2 2
10 11 12 12 11 11 11 10 9 9 10 9 8 7 7 7 7 8 8 12 10 11 11 8 6 4 4 4 6 6 6 6 5 5 4 3 3 3 3 3 3 3 3
Wind_Direction
175 166 170 171 163 165 166 167 165 165 159 158 161 160 169 171 167 170 173 173 173 167 159 165 163 155 158 165 157 142 137 133 130 93 47 3 354 199 199 190 189 202 208
165 172 170 170 171 172 170 166 166 164 164 168 166 160 159 169 168 171 177 179 175 169 171 166 170 164 156 155 156 142 133 133 138 130 106 35 351 325 232 207 199 202 198
173 172 169 170 168 171 172 171 166 165 166 161 147 143 135 134 158 174 180 184 177 171 168 172 168 166 163 167 168 155 144 155 165 146 142 147 209 278 313 258 214 195 192
172 170 166 164 175 177 170 163 164 168 170 165 166 169 173 177 183 180 178 178 177 172 172 172 170 167 164 165 173 163 150 144 158 157 177 168 157 152 254 311 274 222 206
174 172 172 171 180 177 170 169 167 171 173 174 176 177 178 177 166 167 170 176 177 174 176 173 168 165 162 167 168 155 154 152 157 164 162 128 119 130 147 221 277 283 244
181 170 165 162 175 179 172 168 172 178 179 178 180 180 176 171 170 175 179 181 178 180 177 174 170 169 167 167 171 168 164 164 158 156 157 157 162 183 166 191 225 241 263
174 167 164 169 178 180 177 174 178 183 182 181 183 182 179 177 179 180 184 181 180 187 189 183 177 177 177 173 168 168 172 171 169 173 177 177 188 176 163 162 193 230 275
176 174 174 175 180 180 177 178 182 186 184 183 184 182 179 182 184 183 183 185 188 190 185 183 182 182 179 178 173 173 180 177 180 185 178 180 198 178 170 166 157 164 299
178 179 176 175 177 177 178 179 180 182 184 184 181 180 182 184 185 183 182 183 185 190 185 183 184 185 182 179 174 180 187 179 187 189 188 191 207 191 185 172 163 160 193
178 178 172 173 175 175 172 174 178 182 183 182 183 185 186 187 185 180 184 186 189 191 180 182 184 185 186 183 179 182 190 186 196 194 192 200 208 200 187 180 175 169 173
181 178 170 170 167 164 166 172 173 174 178 184 185 182 184 185 181 183 186 186 188 186 183 184 185 188 189 186 185 193 191 194 203 203 197 210 204 198 198 177 168 175 166
174 171 165 160 162 166 169 174 177 178 183 184 182 182 181 177 179 184 184 181 184 187 185 184 187 192 191 187 188 198 198 198 205 210 206 217 209 204 207 192 189 192 186
165 158 157 160 164 169 173 178 182 180 175 174 177 180 181 178 182 185 184 184 183 182 183 182 187 189 186 185 191 195 199 202 207 208 207 215 203 213 215 206 205 210 202
172 161 163 164 165 166 170 174 179 178 174 171 170 178 181 180 183 183 181 182 180 179 178 181 183 182 181 185 192 192 198 208 213 210 207 207 202 211 212 213 214 211 207
167 172 171 169 166 167 170 174 176 171 165 162 167 173 170 168 170 175 175 165 164 169 161 160 164 169 175 193 197 194 194 201 213 213 209 209 209 209 209 211 210 202 206
165 169 165 166 171 174 175 177 177 173 161 159 164 163 158 158 161 164 158 148 147 146 144 151 156 166 189 199 194 188 183 192 203 214 220 218 217 220 216 214 206 197 206
140 152 164 167 172 176 173 174 176 166 160 160 161 159 154 151 152 154 144 146 149 148 149 155 155 169 182 176 178 185 181 191 199 210 220 231 230 218 225 230 230 228 227
61 104 145 157 159 160 159 161 161 156 156 155 154 154 153 152 151 144 148 153 148 151 159 158 162 160 167 167 171 173 167 166 184 198 199 204 236 243 216 221 233 248 253
69 93 137 141 140 148 153 147 146 145 145 150 155 159 159 156 154 154 158 155 144 142 146 141 139 137 121 132 160 153 133 138 167 184 167 172 186 254 206 202 250 276 282
51 76 98 104 117 130 138 137 139 139 147 153 152 147 148 146 146 147 145 139 136 141 133 119 115 120 107 87 117 140 127 131 136 62 33 104 159 309 330 200 236 269 280
52 69 85 91 103 119 124 128 131 142 148 132 121 117 125 134 137 134 128 121 119 117 113 105 88 80 77 77 86 100 108 127 118 75 2 341 348 347 328 264 228 249 275
62 70 81 77 73 92 113 113 114 122 114 109 105 102 100 109 112 109 106 105 111 109 105 101 87 69 63 67 73 80 85 93 111 109 296 306 343 357 357 354 306 297 313
69 71 81 75 65 67 89 96 94 95 100 99 95 91 88 87 93 103 104 97 98 105 104 103 98 80 57 53 61 65 66 63 70 22 353 355 359 7 5 3 352 351 357
71 71 76 76 69 65 72 78 82 92 98 99 95 89 87 79 72 76 84 94 97 106 108 110 109 93 63 43 38 43 49 49 50 35 24 18 13 13 356 352 358 0 327
72 73 75 76 72 69 68 66 71 85 90 90 89 88 87 88 79 69 60 73 66 94 115 117 118 109 85 30 59 72 56 49 46 44 42 39 31 24 16 8 356 352 356
79 78 75 73 69 70 66 59 63 79 89 88 86 89 95 95 96 93 74 55 66 71 78 93 105 88 94 92 73 67 67 65 69 70 56 37 27 20 4 351 345 343 329
Height
1479 1482 1485 1487 1490 1492 1495 1497 1500 1504 1508 1512 1515 1518 1522 1525 1529 1532 1535 1538 1540 1543 1545 1548 1550 1552 1553 1555 1557 1559 1560 1562 1563 1564 1566 1567 1567 1568 1569 1569 1570 1571 1572
1477 1480 1482 1484 1487 1488 1491 1495 1498 1501 1505 1509 1512 1516 1520 1523 1526 1530 1533 1535 1538 1540 1543 1546 1548 1550 1552 1554 1555 1557 1559 1560 1562 1563 1564 1565 1567 1566 1567 1568 1569 1569 1570
1473 1476 1479 1481 1484 1486 1488 1491 1494 1498 1502 1506 1510 1514 1518 1521 1524 1526 1530 1532 1535 1538 1540 1543 1545 1548 1550 1551 1553 1555 1557 1558 1560 1561 1563 1563 1564 1565 1566 1566 1567 1568 1568
1471 1474 1476 1479 1482 1484 1487 1489 1493 1496 1500 1503 1506 1509 1512 1515 1518 1522 1526 1530 1533 1535 1538 1540 1543 1545 1547 1549 1551 1553 1555 1557 1558 1560 1561 1562 1562 1563 1564 1565 1565 1566 1567
1468 1472 1474 1477 1481 1484 1486 1488 1491 1494 1497 1500 1503 1506 1509 1512 1516 1520 1523 1527 1530 1532 1535 1538 1540 1543 1545 1547 1549 1551 1553 1555 1557 1558 1559 1560 1561 1561 1562 1562 1564 1564 1565
1469 1471 1474 1477 1480 1483 1485 1487 1489 1492 1494 1496 1500 1503 1506 1509 1513 1516 1520 1523 1526 1529 1532 1536 1538 1540 1543 1545 1547 1549 1551 1553 1555 1556 1557 1558 1559 1559 1560 1561 1561 1562 1563
1468 1470 1473 1475 1478 1481 1483 1485 1487 1489 1491 1493 1496 1499 1502 1506 1509 1512 1516 1520 1523 1526 1529 1533 1535 1538 1540 1542 1545 1547 1549 1550 1552 1554 1555 1556 1557 1558 1559 1559 1559 1560 1561
1467 1469 1471 1473 1476 1479 1482 1483 1485 1487 1489 1491 1493 1496 1499 1503 1506 1510 1513 1516 1520 1523 1527 1530 1533 1535 1538 1540 1542 1544 1546 1548 1550 1552 1553 1554 1555 1556 1557 1558 1558 1558 1559
1466 1468 1470 1473 1475 1478 1480 1481 1483 1484 1486 1488 1490 1493 1496 1500 1503 1507 1510 1514 1517 1521 1524 1527 1530 1533 1535 1537 1539 1541 1543 1545 1547 1549 1550 1552 1553 1554 1555 1556 1556 1557 1556
1465 1468 1470 1472 1474 1477 1478 1480 1481 1482 1484 1486 1487 1490 1493 1497 1500 1504 1507 1510 1514 1518 1521 1524 1527 1530 1532 1534 1536 1539 1541 1542 1544 1546 1547 1549 1550 1551 1552 1553 1554 1554 1555
1464 1466 1468 1471 1474 1476 1477 1479 1480 1481 1482 1484 1486 1488 1491 1494 1498 1501 1504 1508 1511 1515 1518 1521 1524 1527 1529 1531 1533 1535 1538 1539 1541 1543 1544 1545 1547 1548 1549 1550 1551 1551 1551
1463 1465 1467 1470 1472 1474 1476 1477 1478 1480 1481 1482 1484 1486 1489 1492 1495 1498 1502 1505 1509 1512 1515 1518 1521 1523 1525 1528 1530 1532 1534 1536 1538 1539 1541 1542 1543 1544 1546 1547 1547 1548 1548
1461 1464 1466 1469 1471 1473 1475 1477 1478 1479 1480 1481 1483 1485 1487 1490 1493 1496 1499 1503 1506 1509 1512 1515 1517 1520 1522 1524 1526 1528 1531 1532 1534 1536 1537 1539 1540 1541 1542 1543 1543 1544 1544
1460 1462 1465 1467 1470 1472 1474 1476 1477 1478 1480 1481 1482 1483 1485 1488 1491 1495 1498 1500 1503 1506 1509 1512 1514 1517 1519 1521 1523 1525 1527 1529 1531 1532 1534 1535 1536 1537 1538 1539 1539 1540 1540
1459 1461 1463 1465 1468 1471 1473 1475 1476 1477 1479 1480 1481 1483 1485 1488 1491 1494 1496 1498 1501 1503 1506 1509 1511 1514 1516 1518 1519 1521 1523 1525 1527 1528 1530 1531 1532 1533 1534 1535 1535 1536 1536
1458 1459 1462 1465 1467 1469 1472 1474 1475 1476 1478 1479 1481 1483 1485 1488 1490 1492 1494 1497 1499 1501 1504 1506 1509 1511 1513 1514 1516 1517 1519 1521 1523 1525 1526 1527 1528 1529 1530 1530 1531 1531 1531
1457 1459 1461 1464 1466 1468 1470 1472 1474 1476 1477 1479 1481 1483 1485 1487 1489 1491 1493 1495 1497 1500 1502 1504 1507 1508 1510 1512 1513 1514 1515 1518 1520 1522 1523 1524 1524 1525 1525 1526 1526 1526 1526
1457 1459 1461 1463 1465 1468 1470 1471 1473 1475 1477 1479 1481 1483 1485 1486 1488 1490 1492 1494 1496 1498 1500 1502 1505 1507 1508 1510 1512 1513 1514 1516 1517 1518 1519 1520 1520 1521 1521 1522 1521 1521 1521
1459 1459 1461 1463 1464 1467 1469 1471 1473 1475 1477 1479 1480 1482 1484 1486 1488 1490 1492 1494 1496 1497 1499 1501 1503 1505 1507 1508 1510 1512 1513 1513 1514 1515 1516 1516 1517 1517 1517 1517 1516 1516 1516
1460 1460 1461 1462 1463 1466 1468 1470 1472 1474 1476 1478 1480 1482 1484 1486 1488 1489 1492 1493 1495 1497 1498 1500 1502 1504 1505 1506 1508 1509 1510 1511 1511 1512 1512 1513 1513 1513 1513 1513 1512 1511 1511
1460 1460 1461 1462 1463 1465 1467 1468 1471 1473 1476 1478 1480 1482 1484 1485 1487 1489 1491 1493 1495 1497 1497 1499 1501 1502 1503 1504 1505 1506 1507 1508 1509 1509 1509 1509 1510 1509 1509 1509 1508 1507 1507
1460 1461 1461 1462 1464 1465 1466 1467 1470 1474 1476 1478 1480 1481 1483 1485 1487 1489 1491 1493 1494 1496 1497 1498 1499 1500 1501 1503 1503 1504 1505 1506 1506 1506 1506 1506 1506 1506 1506 1505 1504 1504 1503
1462 1462 1463 1464 1465 1467 1468 1469 1472 1474 1476 1478 1480 1482 1484 1486 1487 1489 1490 1492 1494 1495 1496 1498 1498 1500 1501 1502 1502 1503 1503 1504 1504 1504 1504 1504 1503 1503 1503 1502 1502 1501 1499
1464 1464 1465 1466 1467 1469 1470 1471 1473 1475 1476 1478 1480 1483 1484 1486 1488 1490 1491 1492 1494 1495 1497 1498 1499 1500 1501 1501 1501 1502 1502 1502 1502 1502 1502 1502 1501 1501 1501 1500 1499 1498 1497
1467 1468 1468 1469 1470 1471 1472 1474 1476 1477 1478 1480 1482 1484 1486 1488 1489 1490 1492 1493 1495 1496 1497 1498 1499 1500 1500 1501 1501 1501 1501 1501 1501 1501 1500 1500 1500 1499 1499 1498 1497 1496 1495
1471 1471 1472 1473 1474 1475 1476 1478 1479 1480 1481 1482 1485 1486 1488 1490 1491 1492 1494 1495 1497 1498 1499 1500 1500 1501 1502 1502 1502 1502 1502 1502 1501 1501 1499 1499 1499 1498 1497 1496 1495 1493 1492